Waarnemingen

Advertentie
Mijn weer
Semmerzake, België (6428): temperatuur & dauwpunt: 17.10.2020 10:00:00 - 23.10.2020 10:00:00 (CEST)Semmerzake, België (6428): windsnelheid & windstoten: 17.10.2020 10:00:00 - 23.10.2020 10:00:00 (CEST)Semmerzake, België (6428): windrichting: 17.10.2020 10:00:00 - 23.10.2020 10:00:00 (CEST)Semmerzake, België (6428): luchtdruk: 17.10.2020 10:00:00 - 23.10.2020 10:00:00 (CEST)Semmerzake, België (6428): zicht: 17.10.2020 10:00:00 - 23.10.2020 10:00:00 (CEST)
Datum & Tijd tt [°C] td [°C] ff [km/u] ff [kn] fx [km/u] fx [kn] dd ppp [hPa] vv [km]
23.10.2020 10:00:00 12,5 12,5 4 2 14 8 N 1010,5 0,3
23.10.2020 09:00:00 12,1 12,1 7 4 14 8 Z 1010,2 0,1
23.10.2020 08:00:00 11,5 11,4 7 4 - - Z 1010,1 0,1
23.10.2020 07:00:00 - - - - - - - - -
23.10.2020 06:00:00 - - - - - - - - -
23.10.2020 05:00:00 - - - - - - - - -
23.10.2020 04:00:00 - - - - - - - - -
23.10.2020 03:00:00 - - - - - - - - -
23.10.2020 02:00:00 - - - - - - - - -
23.10.2020 01:00:00 - - - - - - - - -
23.10.2020 00:00:00 - - - - - - - - -
22.10.2020 23:00:00 - - - - - - - - -
22.10.2020 22:00:00 - - - - - - - - -
22.10.2020 21:00:00 13,0 11,2 7 4 11 6 ZZW 1012,0 20
22.10.2020 20:00:00 13,2 11,5 7 4 - - ZZW 1011,7 19
22.10.2020 19:00:00 14,8 11,7 4 2 18 10 N 1011,5 20
22.10.2020 18:00:00 16,1 12,5 11 6 22 12 ZZW 1010,8 19
22.10.2020 17:00:00 16,4 12,3 11 6 - - ZW 1010,8 20
22.10.2020 16:00:00 16,3 12,6 11 6 22 12 ZZW 1010,6 20
22.10.2020 15:00:00 15,8 12,4 11 6 25 14 ZW 1010,8 20
22.10.2020 14:00:00 15,5 13,2 11 6 - - ZW 1011,2 14
22.10.2020 13:00:00 15,5 12,8 18 10 29 16 ZZW 1011,5 20
22.10.2020 12:00:00 15,7 11,7 18 10 29 16 ZZW 1011,3 19
22.10.2020 11:00:00 14,5 11,5 11 6 - - ZZW 1011,6 20
22.10.2020 10:00:00 13,5 11,2 14 8 22 12 ZZW 1011,2 20
22.10.2020 09:00:00 12,2 10,5 14 8 25 14 ZZW 1010,5 20
22.10.2020 08:00:00 11,6 10,0 11 6 - - Z 1009,7 20
22.10.2020 07:00:00 12,5 10,5 14 8 22 12 ZZW 1009,5 20
22.10.2020 06:00:00 12,8 11,0 14 8 29 16 ZZW 1009,2 20
22.10.2020 05:00:00 - - - - - - - - -
22.10.2020 04:00:00 - - - - - - - - -
22.10.2020 03:00:00 - - - - - - - - -
22.10.2020 02:00:00 - - - - - - - - -
22.10.2020 01:00:00 - - - - - - - - -
22.10.2020 00:00:00 - - - - - - - - -
21.10.2020 23:00:00 - - - - - - - - -
21.10.2020 22:00:00 - - - - - - - - -
21.10.2020 21:00:00 - - - - - - - - -
21.10.2020 20:00:00 17,9 11,6 25 14 - - ZW 1003,2 20
21.10.2020 19:00:00 18,6 11,8 32 18 72 39 ZW 1001,5 20
21.10.2020 18:00:00 19,2 12,0 32 18 61 33 ZZW 1000,2 20
21.10.2020 17:00:00 19,8 11,7 40 21 - - ZZW 999,1 20
21.10.2020 16:00:00 20,2 12,7 40 21 79 43 ZZW 998,2 20
21.10.2020 15:00:00 20,5 12,9 47 25 90 49 ZZW 997,2 20
21.10.2020 14:00:00 19,7 12,6 43 23 - - ZZW 996,8 20
21.10.2020 13:00:00 19,5 12,3 40 21 68 37 Z 996,8 19
21.10.2020 12:00:00 17,5 11,3 36 19 54 29 Z 997,1 20
21.10.2020 11:00:00 14,1 11,6 18 10 - - ZZO 998,4 20
21.10.2020 10:00:00 13,1 11,8 18 10 36 19 ZZO 999,6 19
21.10.2020 09:00:00 12,8 11,6 22 12 36 19 Z 1000,2 8
21.10.2020 08:00:00 12,6 11,7 18 10 - - Z 1000,6 9
21.10.2020 07:00:00 12,6 11,8 11 6 29 16 ZZO 1001,2 13
21.10.2020 06:00:00 13,0 12,1 14 8 29 16 ZZO 1001,8 9
21.10.2020 05:00:00 13,1 12,4 11 6 - - Z 1002,5 6
21.10.2020 04:00:00 13,5 12,3 11 6 22 12 Z 1003,2 16
21.10.2020 03:00:00 13,8 12,4 14 8 22 12 Z 1004,2 19
21.10.2020 02:00:00 14,1 12,4 11 6 - - Z 1004,6 20
21.10.2020 01:00:00 14,3 12,6 14 8 29 16 Z 1004,8 20
21.10.2020 00:00:00 14,5 12,8 14 8 29 16 Z 1005,5 20
20.10.2020 23:00:00 14,6 12,8 18 10 - - Z 1006,0 20
20.10.2020 22:00:00 14,5 12,7 22 12 36 19 Z 1006,0 20
20.10.2020 21:00:00 14,3 12,8 25 14 36 19 Z 1006,3 19
20.10.2020 20:00:00 14,3 12,8 18 10 - - Z 1006,6 20
20.10.2020 19:00:00 14,8 12,4 18 10 36 19 Z 1006,3 20
20.10.2020 18:00:00 15,1 12,1 22 12 32 18 ZZW 1006,5 20
20.10.2020 17:00:00 15,1 11,7 22 12 - - Z 1006,6 20
20.10.2020 16:00:00 15,0 10,9 25 14 40 21 Z 1006,2 20
20.10.2020 15:00:00 14,8 10,5 22 12 36 19 Z 1007,1 19
20.10.2020 14:00:00 14,5 10,4 22 12 - - Z 1007,2 20
20.10.2020 13:00:00 14,2 10,3 25 14 43 23 ZZW 1007,2 20
20.10.2020 12:00:00 13,7 9,6 22 12 40 21 Z 1007,2 20
20.10.2020 11:00:00 12,7 9,1 18 10 - - Z 1007,2 20
20.10.2020 10:00:00 12,3 8,3 22 12 32 18 Z 1007,2 20
20.10.2020 09:00:00 11,7 7,6 22 12 32 18 Z 1006,8 20
20.10.2020 08:00:00 11,3 6,9 22 12 - - Z 1006,7 20
20.10.2020 07:00:00 10,6 6,7 14 8 36 19 Z 1006,8 20
20.10.2020 06:00:00 10,6 6,3 22 12 36 19 Z 1007,2 20
20.10.2020 05:00:00 10,3 6,0 18 10 - - Z 1007,7 20
20.10.2020 04:00:00 9,8 5,5 11 6 25 14 ZZO 1008,8 20
20.10.2020 03:00:00 9,8 4,9 11 6 22 12 ZZO 1009,7 20
20.10.2020 02:00:00 9,3 4,6 11 6 - - ZZO 1010,5 20
20.10.2020 01:00:00 8,7 5,2 7 4 14 8 OZO 1011,3 20
20.10.2020 00:00:00 8,8 5,4 11 6 18 10 ZO 1012,2 18
19.10.2020 23:00:00 9,7 5,6 11 6 - - ZO 1013,2 20
19.10.2020 22:00:00 10,2 6,0 7 4 18 10 ZO 1014,2 20
19.10.2020 21:00:00 10,7 6,5 11 6 18 10 OZO 1014,7 20
19.10.2020 20:00:00 10,5 6,8 7 4 - - OZO 1015,7 17
19.10.2020 19:00:00 10,9 7,0 7 4 18 10 ZO 1016,0 19
19.10.2020 18:00:00 12,4 7,7 11 6 18 10 ZZO 1016,6 15
19.10.2020 17:00:00 13,3 7,1 7 4 - - Z 1017,3 20
19.10.2020 16:00:00 13,5 7,9 11 6 25 14 Z 1018,3 18
19.10.2020 15:00:00 13,3 7,1 18 10 25 14 Z 1019,0 20
19.10.2020 14:00:00 13,4 7,5 14 8 - - Z 1019,8 19
19.10.2020 13:00:00 13,0 8,1 11 6 22 12 Z 1021,0 17
19.10.2020 12:00:00 11,7 8,3 11 6 18 10 Z 1021,1 17
19.10.2020 11:00:00 10,1 7,5 7 4 - - Z 1021,5 16
19.10.2020 10:00:00 9,5 7,0 7 4 14 8 Z 1022,0 17
19.10.2020 09:00:00 8,8 7,3 7 4 11 6 Z 1021,6 13
19.10.2020 08:00:00 8,6 7,6 4 2 - - N 1021,5 8
19.10.2020 07:00:00 8,8 7,7 4 2 11 6 N 1021,8 9
19.10.2020 06:00:00 8,6 7,2 4 2 11 6 N 1021,8 12
19.10.2020 05:00:00 8,9 7,2 7 4 - - Z 1022,2 16
19.10.2020 04:00:00 8,8 7,5 7 4 7 4 Z 1022,8 13
19.10.2020 03:00:00 9,0 7,3 4 2 7 4 N 1023,1 17
19.10.2020 02:00:00 9,1 7,4 4 2 - - N 1023,2 18
19.10.2020 01:00:00 9,0 7,5 4 2 7 4 N 1023,3 13
19.10.2020 00:00:00 9,1 7,5 4 2 7 4 N 1023,3 15
18.10.2020 23:00:00 8,8 7,2 4 2 - - N 1023,5 15
18.10.2020 22:00:00 8,8 7,4 4 2 7 4 N 1023,3 15
18.10.2020 21:00:00 9,6 7,6 4 2 4 2 N 1023,1 20
18.10.2020 20:00:00 10,3 7,7 4 2 - - N 1023,2 20
18.10.2020 19:00:00 11,1 7,7 4 2 11 6 N 1023,0 20
18.10.2020 18:00:00 11,3 7,6 4 2 7 4 N 1022,5 20
18.10.2020 17:00:00 11,8 6,1 4 2 - - N 1022,5 20
18.10.2020 16:00:00 11,1 7,1 4 2 18 10 N 1022,7 18
18.10.2020 15:00:00 13,1 7,9 7 4 14 8 N 1022,7 20
18.10.2020 14:00:00 12,9 8,1 7 4 - - NNW 1023,0 20
18.10.2020 13:00:00 11,8 9,7 7 4 14 8 NW 1023,6 12
18.10.2020 12:00:00 11,6 9,7 7 4 14 8 WZW 1023,2 13
18.10.2020 11:00:00 10,5 9,7 4 2 - - N 1023,1 7
18.10.2020 10:00:00 9,1 8,6 7 4 14 8 ZW 1022,8 3,1
18.10.2020 09:00:00 8,6 8,1 7 4 11 6 N 1022,3 2,1
18.10.2020 08:00:00 8,3 7,8 4 2 - - N 1022,0 2,2
18.10.2020 07:00:00 8,0 7,4 4 2 7 4 N 1021,8 2,5
18.10.2020 06:00:00 8,0 7,1 7 4 11 6 Z 1021,8 2,8
18.10.2020 05:00:00 7,8 6,7 4 2 - - N 1021,8 3,9
18.10.2020 04:00:00 8,3 6,8 4 2 7 4 N 1022,2 4,0
18.10.2020 03:00:00 8,3 6,8 4 2 7 4 N 1022,2 4,9
18.10.2020 02:00:00 8,2 7,0 4 2 - - N 1022,2 4,4
18.10.2020 01:00:00 8,5 6,8 7 4 11 6 N 1022,1 5
18.10.2020 00:00:00 8,8 6,8 4 2 7 4 N 1022,1 7
17.10.2020 23:00:00 8,6 7,1 4 2 - - N 1022,1 4,7
17.10.2020 22:00:00 8,8 7,3 4 2 4 2 N 1021,8 6
17.10.2020 21:00:00 9,1 6,9 0 0 4 2 N 1021,7 7
17.10.2020 20:00:00 9,3 6,6 4 2 - - N 1021,7 10
17.10.2020 19:00:00 10,1 6,2 4 2 4 2 N 1021,1 13
17.10.2020 18:00:00 11,1 4,7 4 2 4 2 N 1020,7 16
17.10.2020 17:00:00 11,3 4,5 4 2 - - N 1020,7 18
17.10.2020 16:00:00 - - - - - - - - -
17.10.2020 15:00:00 - - - - - - - - -
17.10.2020 14:00:00 10,5 4,5 4 2 - - N 1021,1 18
17.10.2020 13:00:00 9,9 4,6 4 2 7 4 N 1021,6 20
17.10.2020 12:00:00 - - - - - - - - -
17.10.2020 11:00:00 7,2 6,0 4 2 - - N 1021,7 7
17.10.2020 10:00:00 5,8 5,6 4 2 4 2 N 1021,6 4,8

tt = temperatuur
td = dauwpunt
ff = windsnelheid
fx = windstoten
dd = windrichting
ppp = luchtdruk
vv = zicht

Weerstations in de omgeving